Torna al catalogo

SL-12 DEB

LostHEO
NORAD 60011·DEBRIS·🇷🇺 Russia

Lanciato Mar 1, 2010 da Baikonur Cosmodrome

Loading…

Prossimi Passaggi (prossime 24 ore)

TLE

ObsoletoSource: Space-Track

Epoca: Sep 18, 2025, 01:49 UTC

1 60011U 10007AU  25261.07571256  .00001348  00000-0  32417-2 0  9990
2 60011  64.0258 289.0681 5706694 353.5136   1.5404  4.27453034111337

Traccia SL-12 DEB in tempo reale con AllMySat

Download on the App Store